Location: Tierra del Sol
(32.6128°N, 116.3319°W)
Time: 08:03:05
(UTC-07:00)

Hubble Space Telescope - Pass Details

Date: 08 October 2017
Orbit: 537 x 541 km, 28.5° (Epoch: 23 October)

Event Time Altitude Azimuth Distance (km) Brightness Sun altitude
Exits shadow 04:02:32 12° 105° (ESE) 1,683 3.9 -34.6°
Drops below altitude 10° 04:02:50 10° 104° (ESE) 1,789 4.0 -34.5°
Sets 04:05:09 0° 99° (E) 2,680 5.2 -34.1°
